Regional Weather Roundup
Issued by NWS

Home | Current Version | Previous Version | Text Only | Print | Product List | Glossary On
Versions: 1 2 3 4 5 6 7 8 9 10 11 12 13 14 15 16 17 18 19 20 21 22 23 24 25 26 27 28 29 30 31 32 33 34 35 36 37 38 39 40 41 42 43 44 45 46 47 48 49 50
000
ASUS44 KJAN 301710
RWRMS

MISSISSIPPI HOURLY WEATHER ROUNDUP
NATIONAL WEATHER SERVICE JACKSON MS
1200 PM CDT THU OCT 30 2014

NOTE: "FAIR: INDICATES FEW OR NO CLOUDS BELOW 12,000 FEET WITH NO
SIGNIFICANT WEATHER AND/OR OBSTRUCTIONS TO VISIBILITY.

MSZ001>002-007>008-010>013-018>021-025>028-034>036-301800-
NORTHWEST MISSISSIPPI

CITY           SKY/WX    TMP DP  RH WIND       PRES   REMARKS
CLARKSDALE     FAIR      66  41  39 CALM      30.16F
CLEVELAND      FAIR      66  46  48 CALM      30.15F
GREENWOOD      SUNNY     68  43  40 VRB3      30.15F
GREENVILLE     SUNNY     67  46  47 VRB3      30.15F
GRENADA        FAIR      66  37  34 CALM      30.16S
OLIVE BRANCH   SUNNY     63  39  42 CALM      30.15F
OXFORD         FAIR      63  36  36 N3        30.16F
TUNICA         SUNNY     64  36  34 SE3       30.16F HAZE
$$

MSZ003>006-009-014>017-022>024-029>033-037>039-301800-
NORTHEAST MISSISSIPPI

CITY           SKY/WX    TMP DP  RH WIND       PRES   REMARKS
COLUMBUS AFB   SUNNY     65  35  32 VRB6      30.14F
CORINTH        FAIR      61  39  44 CALM      30.15F
GOLDN TRIANGLE SUNNY     66  36  32 N12       30.14
STARKVILLE     FAIR      64  36  34 N6        30.14F
TUPELO         SUNNY     63  36  36 MISG      30.15F
$$

MSZ040-058-301800-
CENTRAL MISSISSIPPI

CITY           SKY/WX    TMP DP  RH WIND       PRES   REMARKS
JACKSON INTL   SUNNY     69  40  34 VRB5      30.14F
JACKSON HAWKNS SUNNY     68  40  35 VRB7      30.15F
MERIDIAN KEY   SUNNY     68  36  30 N9G18     30.13F
MERIDIAN NAS   SUNNY     67  37  33 N6        30.14F
RAYMOND        FAIR      68  64  88 E7        30.14F
VICKSBURG      SUNNY     68  43  40 CALM      30.16F
$$

MSZ059>079-301800-
SOUTH MISSISSIPPI

CITY           SKY/WX    TMP DP  RH WIND       PRES   REMARKS
BROOKHAVEN     FAIR      66  39  37 N6G16     30.16F
COLUMBIA         N/A     68  39  34 MISG      30.12F
HATTIESBURG    SUNNY     70  37  29 N16       30.13F
MCCOMB         SUNNY     68  35  29 NE8G16    30.14F
NATCHEZ        SUNNY     68  45  42 NE10      30.16F
PINE BELT      SUNNY     70  39  32 N12G17    30.15F
$$

MSZ080>082-301800-
COASTAL MISSISSIPPI

CITY           SKY/WX    TMP DP  RH WIND       PRES   REMARKS
BAY ST LOUIS   SUNNY     70  36  28 NE9       30.11F
BILOXI         SUNNY     70  44  39 NE12      30.10F
PASCAGOULA     SUNNY     71  42  35 NE14      30.09F
GULFPORT       SUNNY     71  41  33 NE14      30.09F
$$



USA.gov is the U.S. government's official web portal to all federal, state and local government web resources and services.